• In Deutschland
  • Länderverzeichnis
  • Für 7 Tage
  • Wassertemperatur
  • Satellitenkarten
  • Wetterkarte
  • Widgets
  • user-avatar
    Anmelden

    Stündliche Wetter Mykhniv

    Heute, 24 Oktober, Mittwoch

    Zeit Temperatur Niederschläge Wind Luftdruck Luftfeuchtigkeit
    00:00 +5°C° 0.8 mm 8 m/S 726 mmHg 80%
    01:00 +5°C° 0.8 mm 8 m/S 726 mmHg 81%
    02:00 +5°C° 0.8 mm 8 m/S 725 mmHg 83%
    03:00 +5°C° 0.8 mm 8 m/S 724 mmHg 83%
    04:00 +5°C° 0.8 mm 7 m/S 723 mmHg 84%
    05:00 +5°C° 0.8 mm 7 m/S 722 mmHg 84%
    06:00 +5°C° 0.3 mm 7 m/S 721 mmHg 83%
    07:00 +5°C° 0.3 mm 7 m/S 721 mmHg 81%
    08:00 +5°C° 0.3 mm 7 m/S 721 mmHg 79%
    09:00 +5°C° 0.2 mm 7 m/S 721 mmHg 76%
    10:00 +5°C° 0.2 mm 8 m/S 721 mmHg 72%
    11:00 +6°C° 0.2 mm 8 m/S 721 mmHg 68%
    12:00 +5°C° 0.3 mm 8 m/S 722 mmHg 67%
    13:00 +5°C° 0.3 mm 9 m/S 722 mmHg 65%
    14:00 +5°C° 0.3 mm 9 m/S 723 mmHg 64%
    15:00 +5°C° 0.2 mm 9 m/S 723 mmHg 67%
    16:00 +3°C° 0.2 mm 9 m/S 723 mmHg 70%
    17:00 +2°C° 0.2 mm 9 m/S 723 mmHg 73%
    18:00 +2°C° 0.2 mm 10 m/S 723 mmHg 73%
    19:00 +2°C° 0.2 mm 10 m/S 724 mmHg 73%
    20:00 +2°C° 0.2 mm 11 m/S 724 mmHg 73%
    21:00 +2°C° 0.5 mm 11 m/S 724 mmHg 74%
    22:00 +2°C° 0.5 mm 11 m/S 724 mmHg 76%
    23:00 +3°C° 0.5 mm 11 m/S 725 mmHg 77%

    Morgen, 25 Oktober, Donnerstag

    Zeit Temperatur Niederschläge Wind Luftdruck Luftfeuchtigkeit
    00:00 +2°C° 0.2 mm 10 m/S 726 mmHg 76%
    01:00 +2°C° 0.2 mm 10 m/S 726 mmHg 75%
    02:00 +2°C° 0.2 mm 10 m/S 727 mmHg 75%
    03:00 +2°C° 0.1 mm 10 m/S 728 mmHg 74%
    04:00 +2°C° 0.1 mm 10 m/S 728 mmHg 74%
    05:00 +2°C° 0.1 mm 9 m/S 729 mmHg 74%
    06:00 +1°C° 0.1 mm 9 m/S 730 mmHg 75%
    07:00 +1°C° 0.1 mm 9 m/S 731 mmHg 76%
    08:00 +1°C° 0.1 mm 9 m/S 731 mmHg 77%
    09:00 +2°C° 0 mm 8 m/S 731 mmHg 74%
    10:00 +2°C° 0 mm 8 m/S 732 mmHg 72%
    11:00 +4°C° 0 mm 8 m/S 732 mmHg 69%
    12:00 +4°C° 0 mm 7 m/S 732 mmHg 66%
    13:00 +5°C° 0 mm 7 m/S 731 mmHg 63%
    14:00 +5°C° 0 mm 7 m/S 731 mmHg 60%
    15:00 +4°C° 0.1 mm 7 m/S 730 mmHg 64%
    16:00 +4°C° 0.1 mm 6 m/S 730 mmHg 68%
    17:00 +3°C° 0.1 mm 6 m/S 729 mmHg 72%
    18:00 +3°C° 1 mm 6 m/S 729 mmHg 77%
    19:00 +4°C° 1 mm 6 m/S 728 mmHg 81%
    20:00 +4°C° 1 mm 7 m/S 728 mmHg 85%
    21:00 +5°C° 0.3 mm 7 m/S 728 mmHg 84%
    22:00 +5°C° 0.3 mm 7 m/S 728 mmHg 83%
    23:00 +5°C° 0.3 mm 7 m/S 728 mmHg 82%

    übermorgen, 26 Oktober, Freitag

    Zeit Temperatur Niederschläge Wind Luftdruck Luftfeuchtigkeit
    00:00 +4°C° 0 mm 8 m/S 728 mmHg 83%
    01:00 +4°C° 0 mm 8 m/S 729 mmHg 83%
    02:00 +4°C° 0 mm 8 m/S 729 mmHg 83%
    03:00 +4°C° 0 mm 8 m/S 730 mmHg 83%
    04:00 +4°C° 0 mm 8 m/S 730 mmHg 83%
    05:00 +4°C° 0 mm 8 m/S 731 mmHg 83%
    06:00 +4°C° 0 mm 7 m/S 732 mmHg 83%
    07:00 +4°C° 0 mm 7 m/S 732 mmHg 83%
    08:00 +4°C° 0 mm 6 m/S 733 mmHg 83%
    09:00 +5°C° 0 mm 6 m/S 733 mmHg 81%
    10:00 +5°C° 0 mm 6 m/S 734 mmHg 79%
    11:00 +5°C° 0 mm 6 m/S 734 mmHg 77%
    12:00 +7°C° 0 mm 6 m/S 734 mmHg 74%
    13:00 +7°C° 0 mm 6 m/S 734 mmHg 72%
    14:00 +8°C° 0 mm 6 m/S 734 mmHg 69%
    15:00 +7°C° 0 mm 5 m/S 734 mmHg 70%
    16:00 +7°C° 0 mm 4 m/S 734 mmHg 72%
    17:00 +8°C° 0 mm 3 m/S 735 mmHg 73%
    18:00 +7°C° 0 mm 3 m/S 735 mmHg 75%
    19:00 +7°C° 0 mm 3 m/S 734 mmHg 78%
    20:00 +5°C° 0 mm 3 m/S 734 mmHg 80%
    21:00 +6°C° 0 mm 4 m/S 734 mmHg 80%
    22:00 +6°C° 0 mm 4 m/S 734 mmHg 81%
    23:00 +6°C° 0 mm 5 m/S 734 mmHg 81%

    27 Oktober, Samstag

    Zeit Temperatur Niederschläge Wind Luftdruck Luftfeuchtigkeit
    00:00 +6°C° 0 mm 5 m/S 734 mmHg 81%
    01:00 +6°C° 0 mm 5 m/S 733 mmHg 82%
    02:00 +6°C° 0 mm 5 m/S 733 mmHg 82%
    03:00 +5°C° 0 mm 6 m/S 732 mmHg 82%
    04:00 +5°C° 0 mm 6 m/S 732 mmHg 83%
    05:00 +7°C° 0 mm 6 m/S 732 mmHg 83%
    06:00 +7°C° 0 mm 5 m/S 732 mmHg 83%
    07:00 +7°C° 0 mm 5 m/S 732 mmHg 84%
    08:00 +7°C° 0 mm 5 m/S 732 mmHg 84%
    09:00 +8°C° 0 mm 6 m/S 733 mmHg 78%
    10:00 +9°C° 0 mm 6 m/S 733 mmHg 73%
    11:00 +10°C° 0 mm 7 m/S 734 mmHg 67%
    12:00 +10°C° 0 mm 6 m/S 734 mmHg 64%
    13:00 +10°C° 0 mm 6 m/S 734 mmHg 60%
    14:00 +10°C° 0 mm 6 m/S 735 mmHg 57%
    15:00 +9°C° 0 mm 5 m/S 735 mmHg 59%
    16:00 +8°C° 0 mm 4 m/S 735 mmHg 60%
    17:00 +9°C° 0 mm 3 m/S 735 mmHg 62%
    18:00 +8°C° 0 mm 2 m/S 736 mmHg 64%
    19:00 +8°C° 0 mm 2 m/S 737 mmHg 65%
    20:00 +7°C° 0 mm 2 m/S 737 mmHg 67%
    21:00 +8°C° 0 mm 1 m/S 737 mmHg 68%
    22:00 +8°C° 0 mm 1 m/S 738 mmHg 68%
    23:00 +8°C° 0 mm 1 m/S 738 mmHg 69%

    28 Oktober, Sonntag

    Zeit Temperatur Niederschläge Wind Luftdruck Luftfeuchtigkeit
    00:00 +8°C° 0.2 mm 1 m/S 739 mmHg 72%
    01:00 +8°C° 0.2 mm 1 m/S 739 mmHg 74%
    02:00 +7°C° 0.2 mm 1 m/S 739 mmHg 77%
    03:00 +7°C° 0.3 mm 1 m/S 739 mmHg 79%
    04:00 +7°C° 0.3 mm 1 m/S 740 mmHg 81%
    05:00 +7°C° 0.3 mm 1 m/S 740 mmHg 83%
    06:00 +7°C° 0.1 mm 1 m/S 740 mmHg 83%
    07:00 +7°C° 0.1 mm 1 m/S 740 mmHg 83%
    08:00 +6°C° 0.1 mm 2 m/S 741 mmHg 83%
    09:00 +6°C° 0 mm 2 m/S 741 mmHg 82%
    10:00 +5°C° 0 mm 3 m/S 741 mmHg 81%
    11:00 +7°C° 0 mm 3 m/S 741 mmHg 80%
    12:00 +7°C° 0.2 mm 3 m/S 741 mmHg 80%
    13:00 +6°C° 0.2 mm 4 m/S 741 mmHg 81%
    14:00 +6°C° 0.2 mm 4 m/S 740 mmHg 81%
    15:00 +6°C° 0.3 mm 4 m/S 740 mmHg 82%
    16:00 +6°C° 0.3 mm 5 m/S 740 mmHg 84%
    17:00 +6°C° 0.3 mm 5 m/S 740 mmHg 85%
    18:00 +6°C° 0.4 mm 5 m/S 740 mmHg 85%
    19:00 +6°C° 0.4 mm 5 m/S 740 mmHg 86%
    20:00 +6°C° 0.4 mm 5 m/S 740 mmHg 86%
    21:00 +6°C° 0 mm 5 m/S 739 mmHg 88%
    22:00 +6°C° 0 mm 4 m/S 739 mmHg 89%
    23:00 +6°C° 0 mm 4 m/S 739 mmHg 90%

    29 Oktober, Montag

    Zeit Temperatur Niederschläge Wind Luftdruck Luftfeuchtigkeit
    00:00 +6°C° 0 mm 4 m/S 739 mmHg 91%
    01:00 +6°C° 0 mm 4 m/S 738 mmHg 92%
    02:00 +6°C° 0 mm 4 m/S 738 mmHg 93%
    03:00 +7°C° 0 mm 3 m/S 738 mmHg 93%
    04:00 +7°C° 0 mm 3 m/S 737 mmHg 93%
    05:00 +7°C° 0 mm 3 m/S 737 mmHg 93%
    06:00 +7°C° 0 mm 3 m/S 737 mmHg 93%
    07:00 +7°C° 0 mm 3 m/S 737 mmHg 93%
    08:00 +7°C° 0 mm 3 m/S 737 mmHg 93%
    09:00 +8°C° 0 mm 4 m/S 736 mmHg 89%
    10:00 +11°C° 0 mm 4 m/S 736 mmHg 85%
    11:00 +13°C° 0 mm 4 m/S 736 mmHg 82%
    12:00 +14°C° 0 mm 4 m/S 735 mmHg 82%
    13:00 +14°C° 0 mm 4 m/S 735 mmHg 82%
    14:00 +15°C° 0 mm 5 m/S 735 mmHg 82%
    15:00 +14°C° 0 mm 4 m/S 734 mmHg 85%
    16:00 +13°C° 0 mm 3 m/S 734 mmHg 87%
    17:00 +13°C° 0 mm 3 m/S 734 mmHg 90%
    18:00 +12°C° 0 mm 3 m/S 734 mmHg 89%
    19:00 +12°C° 0 mm 3 m/S 734 mmHg 88%
    20:00 +13°C° 0 mm 2 m/S 734 mmHg 88%
    21:00 +13°C° 0 mm 2 m/S 734 mmHg 86%
    22:00 +13°C° 0 mm 2 m/S 734 mmHg 84%
    23:00 +13°C° 0 mm 2 m/S 734 mmHg 82%

    30 Oktober, Dienstag

    Zeit Temperatur Niederschläge Wind Luftdruck Luftfeuchtigkeit
    00:00 +13°C° 0 mm 2 m/S 734 mmHg 82%
    01:00 +13°C° 0 mm 2 m/S 735 mmHg 82%
    02:00 +13°C° 0 mm 1 m/S 735 mmHg 82%
    03:00 +12°C° 0 mm 1 m/S 735 mmHg 82%
    04:00 +12°C° 0 mm 1 m/S 735 mmHg 83%
    05:00 +12°C° 0 mm 1 m/S 735 mmHg 83%
    06:00 +12°C° 0 mm 1 m/S 735 mmHg 82%
    07:00 +12°C° 0 mm 2 m/S 735 mmHg 82%
    08:00 +12°C° 0 mm 2 m/S 736 mmHg 81%
    09:00 +14°C° 0 mm 2 m/S 736 mmHg 75%
    10:00 +16°C° 0 mm 2 m/S 736 mmHg 68%
    11:00 +18°C° 0 mm 3 m/S 736 mmHg 62%
    12:00 +19°C° 0 mm 3 m/S 736 mmHg 61%
    13:00 +19°C° 0 mm 3 m/S 736 mmHg 60%
    14:00 +20°C° 0 mm 4 m/S 735 mmHg 58%
    15:00 +19°C° 0 mm 4 m/S 735 mmHg 63%
    16:00 +18°C° 0 mm 4 m/S 735 mmHg 67%
    17:00 +15°C° 0 mm 5 m/S 734 mmHg 72%
    18:00 +15°C° 0 mm 5 m/S 734 mmHg 73%
    19:00 +15°C° 0 mm 6 m/S 734 mmHg 75%
    20:00 +15°C° 0 mm 6 m/S 734 mmHg 76%
    21:00 +15°C° 0 mm 6 m/S 733 mmHg 76%
    22:00 +15°C° 0 mm 7 m/S 733 mmHg 76%
    23:00 +15°C° 0 mm 7 m/S 733 mmHg 76%
    Mehr zeigen